Location: Burland Observatory
(39.4088°N, 105.4217°W)
Time: 05:35:17
(UTC-07:00)

Vanguard 3 - Pass Details

Date: 16 December 2019
Orbit: 507 x 3263 km, 33.4° (Epoch: 24 January)

Event Time Altitude Azimuth Distance (km) Brightness Sun altitude
Rises 11:03:43 0° 274° (W) 4,449 10.8 26.0°
Reaches altitude 10° 11:06:23 10° 267° (W) 3,780 10.5 26.1°
Maximum altitude 11:16:10 44° 200° (SSW) 2,883 11.2 26.5°
Drops below altitude 10° 11:31:46 10° 137° (SE) 5,893 12.5 27.0°
Sets 11:37:12 0° 132° (SE) 7,114 12.6 27.1°
